Time,TemperatureF,DewpointF,PressureIn,WindDirection,WindDirectionDegrees,WindSpeedMPH,WindSpeedGustMPH,Humidity,HourlyPrecipIn,Conditions,Clouds,dailyrainin,SoftwareType,DateUTC
2013-02-25 00:00:00,32.0,22.0,30.15,ENE,74,3.5,7.0,66,0.00,,,0.00,WX3IN1Plus v1.30,2013-02-25 05:00:00,
2013-02-25 00:05:00,32.0,22.0,30.15,NNE,21,1.4,7.5,66,0.00,,,0.00,WX3IN1Plus v1.30,2013-02-25 05:05:00,
2013-02-25 00:10:00,31.8,22.0,30.15,NE,45,2.1,10.6,66,0.00,,,0.00,WX3IN1Plus v1.30,2013-02-25 05:10:00,
2013-02-25 00:15:00,31.8,22.0,30.15,North,8,1.3,4.9,66,0.00,,,0.00,WX3IN1Plus v1.30,2013-02-25 05:15:00,
2013-02-25 00:20:00,31.8,22.5,30.15,North,7,5.5,8.7,67,0.00,,,0.00,WX3IN1Plus v1.30,2013-02-25 05:20:00,
2013-02-25 00:25:00,31.7,22.5,30.15,NNE,16,5.4,6.5,67,0.00,,,0.00,WX3IN1Plus v1.30,2013-02-25 05:25:00,
2013-02-25 00:30:00,31.7,22.5,30.16,WNW,286,1.4,8.1,67,0.00,,,0.00,WX3IN1Plus v1.30,2013-02-25 05:30:00,
2013-02-25 00:35:00,31.6,22.1,30.16,NE,35,3.9,6.7,67,0.00,,,0.00,WX3IN1Plus v1.30,2013-02-25 05:35:00,
2013-02-25 00:40:00,31.5,22.1,30.16,NNE,33,2.2,9.4,67,0.00,,,0.00,WX3IN1Plus v1.30,2013-02-25 05:40:00,
2013-02-25 00:45:00,31.6,22.1,30.16,NNE,28,2.2,7.0,67,0.00,,,0.00,WX3IN1Plus v1.30,2013-02-25 05:45:00,
2013-02-25 00:50:00,31.5,22.1,30.16,NNE,19,1.9,8.5,67,0.00,,,0.00,WX3IN1Plus v1.30,2013-02-25 05:50:00,
2013-02-25 00:55:00,31.5,22.1,30.16,North,8,0.0,5.4,67,0.00,,,0.00,WX3IN1Plus v1.30,2013-02-25 05:55:00,
2013-02-25 01:00:00,31.5,22.1,30.17,NW,316,0.0,5.7,67,0.00,,,0.00,WX3IN1Plus v1.30,2013-02-25 06:00:00,
2013-02-25 01:05:00,31.4,22.0,30.17,NNE,22,0.0,6.9,67,0.00,,,0.00,WX3IN1Plus v1.30,2013-02-25 06:05:00,
2013-02-25 01:10:00,31.3,22.0,30.17,NE,35,2.1,7.3,67,0.00,,,0.00,WX3IN1Plus v1.30,2013-02-25 06:10:00,
2013-02-25 01:15:00,31.4,22.0,30.17,North,358,2.2,7.8,67,0.00,,,0.00,WX3IN1Plus v1.30,2013-02-25 06:15:00,
2013-02-25 01:20:00,31.2,22.0,30.17,North,358,1.4,7.4,67,0.00,,,0.00,WX3IN1Plus v1.30,2013-02-25 06:20:00,
2013-02-25 01:25:00,31.3,22.0,30.17,NE,35,3.6,6.5,67,0.00,,,0.00,WX3IN1Plus v1.30,2013-02-25 06:25:00,
2013-02-25 01:30:00,31.2,22.1,30.17,NNE,33,0.0,8.5,68,0.00,,,0.00,WX3IN1Plus v1.30,2013-02-25 06:30:00,
2013-02-25 01:35:00,31.2,22.1,30.17,NNE,14,2.7,6.4,68,0.00,,,0.00,WX3IN1Plus v1.30,2013-02-25 06:35:00,
2013-02-25 01:40:00,31.1,22.0,30.17,North,1,0.9,6.1,68,0.00,,,0.00,WX3IN1Plus v1.30,2013-02-25 06:40:00,
2013-02-25 01:45:00,30.9,21.8,30.17,NNW,336,0.0,6.8,68,0.00,,,0.00,WX3IN1Plus v1.30,2013-02-25 06:45:00,
2013-02-25 01:50:00,31.0,22.0,30.17,NNE,16,1.4,6.9,68,0.00,,,0.00,WX3IN1Plus v1.30,2013-02-25 06:50:00,
2013-02-25 01:55:00,31.1,22.0,30.18,NNW,336,0.0,6.7,68,0.00,,,0.00,WX3IN1Plus v1.30,2013-02-25 06:55:00,
2013-02-25 02:00:00,30.7,21.4,30.18,NNW,331,0.2,6.5,68,0.00,,,0.00,WX3IN1Plus v1.30,2013-02-25 07:00:00,
2013-02-25 02:05:00,30.9,21.8,30.18,NNE,25,0.0,6.2,68,0.00,,,0.00,WX3IN1Plus v1.30,2013-02-25 07:05:00,
2013-02-25 02:10:00,30.8,21.8,30.18,NNW,344,1.8,7.1,68,0.00,,,0.00,WX3IN1Plus v1.30,2013-02-25 07:10:00,
2013-02-25 02:15:00,30.5,21.4,30.18,North,351,0.0,2.1,68,0.00,,,0.00,WX3IN1Plus v1.30,2013-02-25 07:15:00,
2013-02-25 02:20:00,30.4,22.0,30.18,NNE,15,0.0,1.8,69,0.00,,,0.00,WX3IN1Plus v1.30,2013-02-25 07:20:00,
2013-02-25 02:25:00,30.4,22.0,30.18,NNE,15,0.0,0.0,69,0.00,,,0.00,WX3IN1Plus v1.30,2013-02-25 07:25:00,
2013-02-25 02:30:00,30.3,21.8,30.18,NNE,16,0.0,4.0,69,0.00,,,0.00,WX3IN1Plus v1.30,2013-02-25 07:30:00,
2013-02-25 02:35:00,30.3,21.8,30.18,NNW,345,1.3,3.9,69,0.00,,,0.00,WX3IN1Plus v1.30,2013-02-25 07:35:00,
2013-02-25 02:40:00,30.1,21.8,30.18,NNW,345,0.0,2.6,70,0.00,,,0.00,WX3IN1Plus v1.30,2013-02-25 07:40:00,
2013-02-25 02:45:00,30.0,21.4,30.18,NNW,345,0.8,5.9,70,0.00,,,0.00,WX3IN1Plus v1.30,2013-02-25 07:45:00,
2013-02-25 02:50:00,29.9,21.4,30.18,NW,324,0.0,4.5,70,0.00,,,0.00,WX3IN1Plus v1.30,2013-02-25 07:50:00,
2013-02-25 02:55:00,29.8,21.4,30.18,NW,324,0.0,0.4,70,0.00,,,0.00,WX3IN1Plus v1.30,2013-02-25 07:55:00,
2013-02-25 03:00:00,29.9,21.4,30.18,West,278,0.0,2.6,70,0.00,,,0.00,WX3IN1Plus v1.30,2013-02-25 08:00:00,
2013-02-25 03:05:00,29.8,21.4,30.18,West,278,0.0,0.0,70,0.00,,,0.00,WX3IN1Plus v1.30,2013-02-25 08:05:00,
2013-02-25 03:10:00,29.6,21.2,30.18,NNE,14,3.8,3.8,70,0.00,,,0.00,WX3IN1Plus v1.30,2013-02-25 08:10:00,
2013-02-25 03:15:00,29.5,21.2,30.17,NNW,333,0.0,3.8,70,0.00,,,0.00,WX3IN1Plus v1.30,2013-02-25 08:15:00,
2013-02-25 03:20:00,29.4,21.4,30.17,North,9,0.0,3.4,71,0.00,,,0.00,WX3IN1Plus v1.30,2013-02-25 08:20:00,
2013-02-25 03:25:00,29.3,21.4,30.18,North,9,0.0,0.0,71,0.00,,,0.00,WX3IN1Plus v1.30,2013-02-25 08:25:00,
2013-02-25 03:30:00,29.2,21.4,30.18,North,9,0.0,0.6,71,0.00,,,0.00,WX3IN1Plus v1.30,2013-02-25 08:30:00,
2013-02-25 03:35:00,29.2,21.4,30.18,NNW,327,0.0,4.0,71,0.00,,,0.00,WX3IN1Plus v1.30,2013-02-25 08:35:00,
2013-02-25 03:40:00,29.0,21.2,30.18,NW,319,1.3,3.8,71,0.00,,,0.00,WX3IN1Plus v1.30,2013-02-25 08:40:00,
2013-02-25 03:45:00,29.2,21.4,30.18,NNE,32,0.0,3.4,71,0.00,,,0.00,WX3IN1Plus v1.30,2013-02-25 08:45:00,
2013-02-25 03:50:00,29.3,21.4,30.19,NW,320,0.0,2.4,71,0.00,,,0.00,WX3IN1Plus v1.30,2013-02-25 08:50:00,
2013-02-25 03:55:00,29.2,21.4,30.19,NW,320,0.0,0.0,71,0.00,,,0.00,WX3IN1Plus v1.30,2013-02-25 08:55:00,
2013-02-25 04:00:00,29.1,21.2,30.18,NNE,18,0.0,1.3,71,0.00,,,0.00,WX3IN1Plus v1.30,2013-02-25 09:00:00,
2013-02-25 04:05:00,28.9,21.2,30.19,NNE,18,0.0,0.1,72,0.00,,,0.00,WX3IN1Plus v1.30,2013-02-25 09:05:00,
2013-02-25 04:10:00,28.9,21.2,30.19,NNE,18,0.0,0.0,72,0.00,,,0.00,WX3IN1Plus v1.30,2013-02-25 09:10:00,
2013-02-25 04:15:00,28.8,21.2,30.19,NNE,18,0.0,0.0,72,0.00,,,0.00,WX3IN1Plus v1.30,2013-02-25 09:15:00,
2013-02-25 04:20:00,28.8,21.2,30.19,NNE,18,0.0,0.0,72,0.00,,,0.00,WX3IN1Plus v1.30,2013-02-25 09:20:00,
2013-02-25 04:25:00,28.4,20.7,30.19,NE,42,1.9,5.6,72,0.00,,,0.00,WX3IN1Plus v1.30,2013-02-25 09:25:00,
2013-02-25 04:30:00,28.6,21.4,30.18,NNW,330,3.0,3.3,73,0.00,,,0.00,WX3IN1Plus v1.30,2013-02-25 09:30:00,
2013-02-25 04:35:00,28.8,21.2,30.18,NNE,15,1.9,5.9,72,0.00,,,0.00,WX3IN1Plus v1.30,2013-02-25 09:35:00,
2013-02-25 04:40:00,28.7,21.1,30.19,North,5,2.9,6.0,72,0.00,,,0.00,WX3IN1Plus v1.30,2013-02-25 09:40:00,
2013-02-25 04:45:00,29.2,21.4,30.19,NE,40,0.0,6.0,71,0.00,,,0.00,WX3IN1Plus v1.30,2013-02-25 09:45:00,
2013-02-25 04:50:00,29.3,21.4,30.19,North,11,3.2,5.4,71,0.00,,,0.00,WX3IN1Plus v1.30,2013-02-25 09:50:00,
2013-02-25 04:55:00,29.5,21.8,30.19,NE,50,3.4,4.9,71,0.00,,,0.00,WX3IN1Plus v1.30,2013-02-25 09:55:00,
2013-02-25 05:00:00,29.4,21.4,30.19,NNE,14,2.8,5.0,71,0.00,,,0.00,WX3IN1Plus v1.30,2013-02-25 10:00:00,
2013-02-25 05:05:00,29.5,21.8,30.19,NNW,337,0.0,3.2,71,0.00,,,0.00,WX3IN1Plus v1.30,2013-02-25 10:05:00,
2013-02-25 05:10:00,29.5,21.8,30.19,NE,46,2.9,3.7,71,0.00,,,0.00,WX3IN1Plus v1.30,2013-02-25 10:10:00,
2013-02-25 05:15:00,29.2,21.4,30.20,WNW,291,0.9,4.1,71,0.00,,,0.00,WX3IN1Plus v1.30,2013-02-25 10:15:00,
2013-02-25 05:20:00,29.3,21.4,30.20,NNW,340,1.2,3.0,71,0.00,,,0.00,WX3IN1Plus v1.30,2013-02-25 10:20:00,
2013-02-25 05:25:00,29.4,21.4,30.20,NNW,338,0.4,3.7,71,0.00,,,0.00,WX3IN1Plus v1.30,2013-02-25 10:25:00,
2013-02-25 05:30:00,29.2,21.4,30.20,NNW,330,0.0,0.6,71,0.00,,,0.00,WX3IN1Plus v1.30,2013-02-25 10:30:00,
2013-02-25 05:35:00,29.2,21.4,30.21,NW,313,1.8,3.2,71,0.00,,,0.00,WX3IN1Plus v1.30,2013-02-25 10:35:00,
2013-02-25 05:40:00,29.1,21.2,30.21,NW,319,0.0,2.1,71,0.00,,,0.00,WX3IN1Plus v1.30,2013-02-25 10:40:00,
2013-02-25 05:45:00,29.1,21.2,30.22,NW,319,0.0,0.0,71,0.00,,,0.00,WX3IN1Plus v1.30,2013-02-25 10:45:00,
2013-02-25 05:50:00,29.0,21.4,30.22,NW,319,0.0,0.0,72,0.00,,,0.00,WX3IN1Plus v1.30,2013-02-25 10:50:00,
2013-02-25 05:55:00,28.8,21.2,30.22,NW,319,0.0,0.0,72,0.00,,,0.00,WX3IN1Plus v1.30,2013-02-25 10:55:00,
2013-02-25 06:00:00,28.3,20.7,30.22,NW,319,0.0,0.0,72,0.00,,,0.00,WX3IN1Plus v1.30,2013-02-25 11:00:00,
2013-02-25 06:05:00,28.0,20.7,30.22,NW,319,0.0,0.0,73,0.00,,,0.00,WX3IN1Plus v1.30,2013-02-25 11:05:00,
2013-02-25 06:10:00,27.7,20.7,30.22,NW,319,0.0,0.0,73,0.00,,,0.00,WX3IN1Plus v1.30,2013-02-25 11:10:00,
2013-02-25 06:15:00,27.6,20.7,30.22,NW,319,0.0,0.0,74,0.00,,,0.00,WX3IN1Plus v1.30,2013-02-25 11:15:00,
2013-02-25 06:20:00,27.2,20.3,30.22,NW,319,0.0,0.0,74,0.00,,,0.00,WX3IN1Plus v1.30,2013-02-25 11:20:00,
2013-02-25 06:25:00,27.1,20.5,30.22,NW,319,0.0,0.0,75,0.00,,,0.00,WX3IN1Plus v1.30,2013-02-25 11:25:00,
2013-02-25 06:30:00,26.9,20.3,30.22,NW,319,0.0,0.0,75,0.00,,,0.00,WX3IN1Plus v1.30,2013-02-25 11:30:00,
2013-02-25 06:35:00,26.7,20.5,30.22,NW,319,0.0,0.0,76,0.00,,,0.00,WX3IN1Plus v1.30,2013-02-25 11:35:00,
2013-02-25 06:40:00,26.8,20.7,30.22,NW,319,0.0,0.0,76,0.00,,,0.00,WX3IN1Plus v1.30,2013-02-25 11:40:00,
2013-02-25 06:45:00,26.7,20.5,30.22,NW,319,0.0,0.0,76,0.00,,,0.00,WX3IN1Plus v1.30,2013-02-25 11:45:00,
2013-02-25 06:50:00,26.5,20.5,30.22,NW,319,0.0,0.0,77,0.00,,,0.00,WX3IN1Plus v1.30,2013-02-25 11:50:00,
2013-02-25 06:55:00,26.4,20.5,30.22,NW,319,0.0,0.0,77,0.00,,,0.00,WX3IN1Plus v1.30,2013-02-25 11:55:00,
2013-02-25 07:00:00,26.4,20.5,30.22,NW,319,0.0,0.0,77,0.00,,,0.00,WX3IN1Plus v1.30,2013-02-25 12:00:00,
2013-02-25 07:05:00,26.3,20.5,30.22,NW,319,0.0,0.0,77,0.00,,,0.00,WX3IN1Plus v1.30,2013-02-25 12:05:00,
2013-02-25 07:10:00,26.2,20.3,30.23,NW,319,0.0,0.0,77,0.00,,,0.00,WX3IN1Plus v1.30,2013-02-25 12:10:00,
2013-02-25 07:15:00,26.1,20.5,30.23,NW,319,0.0,0.0,78,0.00,,,0.00,WX3IN1Plus v1.30,2013-02-25 12:15:00,
2013-02-25 07:21:00,26.1,20.7,30.23,NW,319,0.0,0.0,79,0.00,,,0.00,WX3IN1Plus v1.30,2013-02-25 12:21:00,
2013-02-25 07:26:00,26.0,20.5,30.23,NW,319,0.0,0.0,79,0.00,,,0.00,WX3IN1Plus v1.30,2013-02-25 12:26:00,
2013-02-25 07:31:00,26.2,20.7,30.23,NW,319,0.0,0.0,79,0.00,,,0.00,WX3IN1Plus v1.30,2013-02-25 12:31:00,
2013-02-25 07:36:00,26.0,20.5,30.23,NW,319,0.0,0.0,79,0.00,,,0.00,WX3IN1Plus v1.30,2013-02-25 12:36:00,
2013-02-25 07:41:00,26.4,21.1,30.23,NW,319,0.0,0.0,79,0.00,,,0.00,WX3IN1Plus v1.30,2013-02-25 12:41:00,
2013-02-25 07:46:00,27.1,21.4,30.23,NW,319,0.0,0.0,78,0.00,,,0.00,WX3IN1Plus v1.30,2013-02-25 12:46:00,
2013-02-25 07:51:00,28.0,21.8,30.23,North,5,0.0,4.0,76,0.00,,,0.00,WX3IN1Plus v1.30,2013-02-25 12:51:00,
2013-02-25 07:56:00,28.9,22.1,30.23,NNE,16,0.0,4.4,75,0.00,,,0.00,WX3IN1Plus v1.30,2013-02-25 12:56:00,
2013-02-25 08:01:00,29.9,22.1,30.23,NNW,337,2.3,5.2,72,0.00,,,0.00,WX3IN1Plus v1.30,2013-02-25 13:01:00,
2013-02-25 08:06:00,30.6,22.7,30.23,NNE,33,2.3,3.1,71,0.00,,,0.00,WX3IN1Plus v1.30,2013-02-25 13:06:00,
2013-02-25 08:11:00,31.1,22.7,30.23,North,0,2.8,5.1,70,0.00,,,0.00,WX3IN1Plus v1.30,2013-02-25 13:11:00,
2013-02-25 08:16:00,31.6,22.9,30.23,NW,316,2.6,6.2,69,0.00,,,0.00,WX3IN1Plus v1.30,2013-02-25 13:16:00,
2013-02-25 08:21:00,31.8,22.7,30.23,NNE,33,0.0,5.2,68,0.00,,,0.00,WX3IN1Plus v1.30,2013-02-25 13:21:00,
2013-02-25 08:26:00,32.7,22.9,30.23,North,1,4.0,7.2,67,0.00,,,0.00,WX3IN1Plus v1.30,2013-02-25 13:26:00,
2013-02-25 08:31:00,33.0,22.7,30.24,ENE,68,4.5,6.8,66,0.00,,,0.00,WX3IN1Plus v1.30,2013-02-25 13:31:00,
2013-02-25 08:36:00,33.5,22.5,30.24,NNW,337,1.6,6.2,64,0.00,,,0.00,WX3IN1Plus v1.30,2013-02-25 13:36:00,
2013-02-25 08:41:00,33.8,22.9,30.24,North,352,3.5,6.5,64,0.00,,,0.00,WX3IN1Plus v1.30,2013-02-25 13:41:00,
2013-02-25 08:46:00,34.2,22.9,30.24,NNE,33,4.7,9.6,63,0.00,,,0.00,WX3IN1Plus v1.30,2013-02-25 13:46:00,
2013-02-25 08:51:00,34.7,22.9,30.24,North,4,5.3,8.2,62,0.00,,,0.00,WX3IN1Plus v1.30,2013-02-25 13:51:00,
2013-02-25 08:56:00,35.1,23.2,30.24,NE,49,2.5,8.0,61,0.00,,,0.00,WX3IN1Plus v1.30,2013-02-25 13:56:00,
2013-02-25 09:02:00,35.4,22.1,30.25,NNW,338,4.4,9.3,59,0.00,,,0.00,WX3IN1Plus v1.30,2013-02-25 14:02:00,
2013-02-25 09:07:00,35.7,22.7,30.25,NNE,16,5.6,11.7,59,0.00,,,0.00,WX3IN1Plus v1.30,2013-02-25 14:07:00,
2013-02-25 09:12:00,36.1,22.7,30.25,NNE,25,4.4,9.8,58,0.00,,,0.00,WX3IN1Plus v1.30,2013-02-25 14:12:00,
2013-02-25 09:17:00,36.2,22.9,30.25,North,354,4.2,9.5,58,0.00,,,0.00,WX3IN1Plus v1.30,2013-02-25 14:17:00,
2013-02-25 09:22:00,36.5,23.2,30.26,NNE,25,3.2,7.3,58,0.00,,,0.00,WX3IN1Plus v1.30,2013-02-25 14:22:00,
2013-02-25 09:27:00,36.9,23.6,30.25,NNE,28,5.3,8.7,58,0.00,,,0.00,WX3IN1Plus v1.30,2013-02-25 14:27:00,
2013-02-25 09:32:00,37.2,23.4,30.25,North,7,3.6,9.7,57,0.00,,,0.00,WX3IN1Plus v1.30,2013-02-25 14:32:00,
2013-02-25 09:37:00,37.5,23.2,30.26,NNE,12,4.1,10.7,56,0.00,,,0.00,WX3IN1Plus v1.30,2013-02-25 14:37:00,
2013-02-25 09:42:00,37.5,23.2,30.26,North,352,0.0,9.6,56,0.00,,,0.00,WX3IN1Plus v1.30,2013-02-25 14:42:00,
2013-02-25 09:47:00,38.0,23.2,30.26,NE,53,6.0,9.3,55,0.00,,,0.00,WX3IN1Plus v1.30,2013-02-25 14:47:00,
2013-02-25 09:52:00,38.3,23.6,30.26,NNE,25,5.1,7.3,55,0.00,,,0.00,WX3IN1Plus v1.30,2013-02-25 14:52:00,
2013-02-25 09:57:00,38.6,23.2,30.26,NNE,33,1.4,7.8,54,0.00,,,0.00,WX3IN1Plus v1.30,2013-02-25 14:57:00,
2013-02-25 10:02:00,38.8,23.9,30.26,North,2,1.9,7.3,55,0.00,,,0.00,WX3IN1Plus v1.30,2013-02-25 15:02:00,
2013-02-25 10:07:00,39.4,23.9,30.26,ENE,75,7.6,9.3,53,0.00,,,0.00,WX3IN1Plus v1.30,2013-02-25 15:07:00,
2013-02-25 10:12:00,39.6,24.1,30.26,NE,46,2.4,8.3,54,0.00,,,0.00,WX3IN1Plus v1.30,2013-02-25 15:12:00,
2013-02-25 10:17:00,39.9,24.3,30.27,NE,39,5.2,9.2,54,0.00,,,0.00,WX3IN1Plus v1.30,2013-02-25 15:17:00,
2013-02-25 10:22:00,40.0,24.7,30.27,NNE,22,3.2,8.1,54,0.00,,,0.00,WX3IN1Plus v1.30,2013-02-25 15:22:00,
2013-02-25 10:27:00,40.2,24.1,30.27,ENE,57,4.8,10.4,52,0.00,,,0.00,WX3IN1Plus v1.30,2013-02-25 15:27:00,
2013-02-25 10:32:00,40.2,24.1,30.27,NE,37,3.4,8.2,52,0.00,,,0.00,WX3IN1Plus v1.30,2013-02-25 15:32:00,
2013-02-25 10:37:00,40.5,24.8,30.26,NNE,29,4.5,7.5,53,0.00,,,0.00,WX3IN1Plus v1.30,2013-02-25 15:37:00,
2013-02-25 10:42:00,40.5,24.8,30.26,NNE,32,0.0,7.5,53,0.00,,,0.00,WX3IN1Plus v1.30,2013-02-25 15:42:00,
2013-02-25 10:47:00,40.7,25.0,30.26,North,2,2.8,10.7,53,0.00,,,0.00,WX3IN1Plus v1.30,2013-02-25 15:47:00,
2013-02-25 10:52:00,41.1,25.4,30.26,NE,39,3.0,4.6,53,0.00,,,0.00,WX3IN1Plus v1.30,2013-02-25 15:52:00,
2013-02-25 10:57:00,41.2,25.6,30.26,East,85,5.4,9.4,53,0.00,,,0.00,WX3IN1Plus v1.30,2013-02-25 15:57:00,
2013-02-25 11:02:00,41.7,25.4,30.26,NE,37,8.3,8.3,52,0.00,,,0.00,WX3IN1Plus v1.30,2013-02-25 16:02:00,
2013-02-25 11:07:00,41.9,25.4,30.26,NE,52,3.0,8.8,51,0.00,,,0.00,WX3IN1Plus v1.30,2013-02-25 16:07:00,
2013-02-25 11:12:00,42.0,25.4,30.26,NNW,348,1.5,6.7,51,0.00,,,0.00,WX3IN1Plus v1.30,2013-02-25 16:12:00,
2013-02-25 11:17:00,42.2,25.4,30.26,East,97,4.9,6.4,51,0.00,,,0.00,WX3IN1Plus v1.30,2013-02-25 16:17:00,
2013-02-25 11:22:00,42.4,25.6,30.25,NE,43,3.1,5.0,51,0.00,,,0.00,WX3IN1Plus v1.30,2013-02-25 16:22:00,
2013-02-25 11:27:00,42.5,25.7,30.26,NNE,28,4.1,9.6,51,0.00,,,0.00,WX3IN1Plus v1.30,2013-02-25 16:27:00,
2013-02-25 11:32:00,43.1,26.3,30.26,NNE,15,0.0,11.1,51,0.00,,,0.00,WX3IN1Plus v1.30,2013-02-25 16:32:00,
2013-02-25 11:37:00,43.2,24.8,30.26,NE,43,0.6,11.6,48,0.00,,,0.00,WX3IN1Plus v1.30,2013-02-25 16:37:00,
2013-02-25 11:42:00,43.2,25.7,30.25,NE,43,10.4,10.4,50,0.00,,,0.00,WX3IN1Plus v1.30,2013-02-25 16:42:00,
2013-02-25 11:47:00,43.4,26.1,30.26,North,354,5.4,10.9,50,0.00,,,0.00,WX3IN1Plus v1.30,2013-02-25 16:47:00,
2013-02-25 11:52:00,43.5,26.5,30.25,ENE,60,1.8,8.7,51,0.00,,,0.00,WX3IN1Plus v1.30,2013-02-25 16:52:00,
2013-02-25 11:57:00,43.5,26.5,30.26,NE,56,4.4,7.1,51,0.00,,,0.00,WX3IN1Plus v1.30,2013-02-25 16:57:00,
2013-02-25 12:02:00,43.9,26.5,30.26,North,0,3.1,7.2,50,0.00,,,0.00,WX3IN1Plus v1.30,2013-02-25 17:02:00,
2013-02-25 12:07:00,44.1,26.3,30.26,ENE,59,4.3,6.9,49,0.00,,,0.00,WX3IN1Plus v1.30,2013-02-25 17:07:00,
2013-02-25 12:12:00,44.4,26.5,30.26,NNE,30,4.1,8.8,49,0.00,,,0.00,WX3IN1Plus v1.30,2013-02-25 17:12:00,
2013-02-25 12:17:00,44.2,25.7,30.25,NE,52,4.1,7.2,48,0.00,,,0.00,WX3IN1Plus v1.30,2013-02-25 17:17:00,
2013-02-25 12:22:00,44.4,26.5,30.26,ENE,66,2.7,9.2,49,0.00,,,0.00,WX3IN1Plus v1.30,2013-02-25 17:22:00,
2013-02-25 12:27:00,44.5,26.5,30.25,East,80,0.0,5.4,49,0.00,,,0.00,WX3IN1Plus v1.30,2013-02-25 17:27:00,
2013-02-25 12:32:00,44.7,26.3,30.25,ENE,78,2.2,6.7,48,0.00,,,0.00,WX3IN1Plus v1.30,2013-02-25 17:32:00,
2013-02-25 12:37:00,44.9,27.0,30.25,West,278,1.4,6.1,49,0.00,,,0.00,WX3IN1Plus v1.30,2013-02-25 17:37:00,
2013-02-25 12:42:00,45.0,26.5,30.25,NNE,23,4.8,5.4,48,0.00,,,0.00,WX3IN1Plus v1.30,2013-02-25 17:42:00,
2013-02-25 12:47:00,45.1,27.0,30.25,ESE,112,0.0,6.6,49,0.00,,,0.00,WX3IN1Plus v1.30,2013-02-25 17:47:00,
2013-02-25 12:52:00,45.4,25.7,30.25,NE,52,1.3,10.1,46,0.00,,,0.00,WX3IN1Plus v1.30,2013-02-25 17:52:00,
2013-02-25 12:57:00,45.5,27.0,30.24,North,355,0.0,2.1,48,0.00,,,0.00,WX3IN1Plus v1.30,2013-02-25 17:57:00,
2013-02-25 13:02:00,45.3,26.1,30.25,NW,315,2.8,8.0,47,0.00,,,0.00,WX3IN1Plus v1.30,2013-02-25 18:02:00,
2013-02-25 13:07:00,45.5,26.3,30.25,NNE,19,1.5,8.7,47,0.00,,,0.00,WX3IN1Plus v1.30,2013-02-25 18:07:00,
2013-02-25 13:12:00,45.7,26.1,30.25,North,350,0.8,5.0,46,0.00,,,0.00,WX3IN1Plus v1.30,2013-02-25 18:12:00,
2013-02-25 13:17:00,45.9,27.9,30.25,WSW,250,0.0,4.5,49,0.00,,,0.00,WX3IN1Plus v1.30,2013-02-25 18:17:00,
2013-02-25 13:22:00,46.3,27.0,30.25,WNW,291,2.5,9.1,47,0.00,,,0.00,WX3IN1Plus v1.30,2013-02-25 18:22:00,
2013-02-25 13:27:00,46.5,26.3,30.25,NNW,343,3.8,6.7,45,0.00,,,0.00,WX3IN1Plus v1.30,2013-02-25 18:27:00,
2013-02-25 13:32:00,46.3,26.1,30.25,NE,37,2.6,7.3,45,0.00,,,0.00,WX3IN1Plus v1.30,2013-02-25 18:32:00,
2013-02-25 13:37:00,46.1,25.7,30.25,East,87,1.7,6.5,45,0.00,,,0.00,WX3IN1Plus v1.30,2013-02-25 18:37:00,
2013-02-25 13:42:00,45.9,26.3,30.25,NNW,334,0.6,7.3,46,0.00,,,0.00,WX3IN1Plus v1.30,2013-02-25 18:42:00,
2013-02-25 13:47:00,46.1,26.3,30.24,NNW,334,2.3,6.5,46,0.00,,,0.00,WX3IN1Plus v1.30,2013-02-25 18:47:00,
2013-02-25 13:52:00,46.4,27.2,30.24,WSW,255,1.8,4.9,47,0.00,,,0.00,WX3IN1Plus v1.30,2013-02-25 18:52:00,
2013-02-25 13:57:00,46.6,26.3,30.24,NNW,344,4.0,6.0,45,0.00,,,0.00,WX3IN1Plus v1.30,2013-02-25 18:57:00,
2013-02-25 14:02:00,46.8,26.1,30.24,NNE,16,2.1,9.6,44,0.00,,,0.00,WX3IN1Plus v1.30,2013-02-25 19:02:00,
2013-02-25 14:07:00,46.8,26.1,30.24,North,11,0.0,6.0,44,0.00,,,0.00,WX3IN1Plus v1.30,2013-02-25 19:07:00,
2013-02-25 14:12:00,46.4,26.3,30.24,NNE,16,0.0,4.4,45,0.00,,,0.00,WX3IN1Plus v1.30,2013-02-25 19:12:00,
2013-02-25 14:17:00,46.2,26.3,30.23,North,2,0.0,5.9,46,0.00,,,0.00,WX3IN1Plus v1.30,2013-02-25 19:17:00,
2013-02-25 14:22:00,46.3,26.1,30.23,NE,47,5.9,6.2,45,0.00,,,0.00,WX3IN1Plus v1.30,2013-02-25 19:22:00,
2013-02-25 14:27:00,46.3,25.6,30.23,NW,326,1.8,5.9,44,0.00,,,0.00,WX3IN1Plus v1.30,2013-02-25 19:27:00,
2013-02-25 14:32:00,46.3,26.1,30.23,NNE,16,0.0,6.2,45,0.00,,,0.00,WX3IN1Plus v1.30,2013-02-25 19:32:00,
2013-02-25 14:37:00,46.7,25.7,30.23,NNW,327,2.5,7.8,44,0.00,,,0.00,WX3IN1Plus v1.30,2013-02-25 19:37:00,
2013-02-25 14:42:00,46.6,25.7,30.23,NNE,30,0.0,6.7,44,0.00,,,0.00,WX3IN1Plus v1.30,2013-02-25 19:42:00,
2013-02-25 14:47:00,46.6,25.4,30.23,NNE,30,0.0,0.0,43,0.00,,,0.00,WX3IN1Plus v1.30,2013-02-25 19:47:00,
2013-02-25 14:53:00,46.8,26.5,30.23,NNE,30,0.0,0.0,45,0.00,,,0.00,WX3IN1Plus v1.30,2013-02-25 19:53:00,
2013-02-25 14:58:00,47.1,26.8,30.23,NW,317,1.2,4.5,45,0.00,,,0.00,WX3IN1Plus v1.30,2013-02-25 19:58:00,
2013-02-25 15:03:00,47.1,27.2,30.23,NNE,15,0.0,5.0,46,0.00,,,0.00,WX3IN1Plus v1.30,2013-02-25 20:03:00,
2013-02-25 15:08:00,47.4,27.0,30.23,SSE,158,3.7,4.7,45,0.00,,,0.00,WX3IN1Plus v1.30,2013-02-25 20:08:00,
2013-02-25 15:13:00,47.4,26.5,30.23,South,182,0.0,5.1,44,0.00,,,0.00,WX3IN1Plus v1.30,2013-02-25 20:13:00,
2013-02-25 15:18:00,47.8,26.8,30.23,SE,129,1.1,4.1,44,0.00,,,0.00,WX3IN1Plus v1.30,2013-02-25 20:18:00,
2013-02-25 15:23:00,47.8,25.6,30.23,SE,129,0.0,1.1,42,0.00,,,0.00,WX3IN1Plus v1.30,2013-02-25 20:23:00,
2013-02-25 15:28:00,47.6,26.3,30.23,SE,129,0.0,0.0,43,0.00,,,0.00,WX3IN1Plus v1.30,2013-02-25 20:28:00,
2013-02-25 15:33:00,47.4,26.1,30.22,East,87,3.8,7.3,43,0.00,,,0.00,WX3IN1Plus v1.30,2013-02-25 20:33:00,
2013-02-25 15:38:00,47.5,26.3,30.22,ENE,59,3.1,5.5,43,0.00,,,0.00,WX3IN1Plus v1.30,2013-02-25 20:38:00,
2013-02-25 15:43:00,47.3,25.4,30.22,NE,35,0.0,8.2,42,0.00,,,0.00,WX3IN1Plus v1.30,2013-02-25 20:43:00,
2013-02-25 15:48:00,47.2,25.7,30.23,NE,53,0.0,3.8,43,0.00,,,0.00,WX3IN1Plus v1.30,2013-02-25 20:48:00,
2013-02-25 15:53:00,47.4,26.1,30.23,North,5,0.0,3.7,43,0.00,,,0.00,WX3IN1Plus v1.30,2013-02-25 20:53:00,
2013-02-25 15:58:00,47.3,26.1,30.22,NE,52,0.0,5.4,43,0.00,,,0.00,WX3IN1Plus v1.30,2013-02-25 20:58:00,
2013-02-25 16:03:00,47.3,26.1,30.22,ESE,113,0.0,6.9,43,0.00,,,0.00,WX3IN1Plus v1.30,2013-02-25 21:03:00,
2013-02-25 16:08:00,47.2,26.8,30.23,East,87,0.0,5.2,45,0.00,,,0.00,WX3IN1Plus v1.30,2013-02-25 21:08:00,
2013-02-25 16:13:00,47.3,26.5,30.23,East,87,0.0,0.0,44,0.00,,,0.00,WX3IN1Plus v1.30,2013-02-25 21:13:00,
2013-02-25 16:18:00,47.5,26.8,30.23,NE,49,0.0,3.6,44,0.00,,,0.00,WX3IN1Plus v1.30,2013-02-25 21:18:00,
2013-02-25 16:23:00,47.7,26.3,30.23,NE,47,0.0,4.5,43,0.00,,,0.00,WX3IN1Plus v1.30,2013-02-25 21:23:00,
2013-02-25 16:28:00,47.8,26.3,30.24,East,82,0.0,3.1,43,0.00,,,0.00,WX3IN1Plus v1.30,2013-02-25 21:28:00,
2013-02-25 16:33:00,47.9,26.5,30.24,East,82,0.0,0.0,43,0.00,,,0.00,WX3IN1Plus v1.30,2013-02-25 21:33:00,
2013-02-25 16:38:00,48.2,27.2,30.24,WSW,250,0.0,4.6,44,0.00,,,0.00,WX3IN1Plus v1.30,2013-02-25 21:38:00,
2013-02-25 16:43:00,48.1,27.2,30.23,SW,227,0.0,5.0,44,0.00,,,0.00,WX3IN1Plus v1.30,2013-02-25 21:43:00,
2013-02-25 16:48:00,47.6,26.8,30.23,SW,227,0.0,0.0,44,0.00,,,0.00,WX3IN1Plus v1.30,2013-02-25 21:48:00,
2013-02-25 16:53:00,47.2,26.8,30.23,WSW,248,0.0,1.4,45,0.00,,,0.00,WX3IN1Plus v1.30,2013-02-25 21:53:00,
2013-02-25 16:58:00,47.1,26.8,30.24,SSE,160,2.4,2.4,45,0.00,,,0.00,WX3IN1Plus v1.30,2013-02-25 21:58:00,
2013-02-25 17:03:00,46.7,27.2,30.24,SE,125,0.0,2.7,47,0.00,,,0.00,WX3IN1Plus v1.30,2013-02-25 22:03:00,
2013-02-25 17:08:00,46.1,27.5,30.24,SSE,163,0.0,3.9,48,0.00,,,0.00,WX3IN1Plus v1.30,2013-02-25 22:08:00,
2013-02-25 17:13:00,45.6,27.5,30.24,SE,130,0.0,3.7,49,0.00,,,0.00,WX3IN1Plus v1.30,2013-02-25 22:13:00,
2013-02-25 17:18:00,45.2,27.2,30.24,SE,130,0.0,0.0,49,0.00,,,0.00,WX3IN1Plus v1.30,2013-02-25 22:18:00,
2013-02-25 17:23:00,44.9,27.5,30.23,SE,130,0.0,0.0,50,0.00,,,0.00,WX3IN1Plus v1.30,2013-02-25 22:23:00,
2013-02-25 17:28:00,44.4,27.0,30.23,SE,130,0.0,0.0,50,0.00,,,0.00,WX3IN1Plus v1.30,2013-02-25 22:28:00,
2013-02-25 17:33:00,44.1,27.2,30.23,SSE,154,0.0,3.6,51,0.00,,,0.00,WX3IN1Plus v1.30,2013-02-25 22:33:00,
2013-02-25 17:38:00,43.6,26.8,30.24,SSE,154,0.0,0.0,51,0.00,,,0.00,WX3IN1Plus v1.30,2013-02-25 22:38:00,
2013-02-25 17:43:00,43.5,27.0,30.23,South,181,0.0,2.7,52,0.00,,,0.00,WX3IN1Plus v1.30,2013-02-25 22:43:00,
2013-02-25 17:48:00,43.2,26.8,30.23,SSW,213,0.0,6.2,52,0.00,,,0.00,WX3IN1Plus v1.30,2013-02-25 22:48:00,
2013-02-25 17:53:00,42.9,27.0,30.23,SSW,213,0.0,0.0,53,0.00,,,0.00,WX3IN1Plus v1.30,2013-02-25 22:53:00,
2013-02-25 17:58:00,42.5,26.8,30.23,South,184,0.0,0.5,53,0.00,,,0.00,WX3IN1Plus v1.30,2013-02-25 22:58:00,
2013-02-25 18:03:00,42.3,26.8,30.23,SE,125,0.0,3.2,54,0.00,,,0.00,WX3IN1Plus v1.30,2013-02-25 23:03:00,
2013-02-25 18:08:00,41.9,26.5,30.23,SE,125,0.0,0.0,54,0.00,,,0.00,WX3IN1Plus v1.30,2013-02-25 23:08:00,
2013-02-25 18:13:00,41.7,26.5,30.23,SE,125,0.0,0.0,55,0.00,,,0.00,WX3IN1Plus v1.30,2013-02-25 23:13:00,
2013-02-25 18:18:00,41.3,25.7,30.23,SE,125,0.0,0.0,54,0.00,,,0.00,WX3IN1Plus v1.30,2013-02-25 23:18:00,
2013-02-25 18:23:00,41.1,25.6,30.23,SE,125,0.0,0.0,54,0.00,,,0.00,WX3IN1Plus v1.30,2013-02-25 23:23:00,
2013-02-25 18:28:00,40.9,25.7,30.23,SE,125,0.0,0.0,55,0.00,,,0.00,WX3IN1Plus v1.30,2013-02-25 23:28:00,
2013-02-25 18:33:00,40.4,25.4,30.23,SE,125,0.0,0.0,55,0.00,,,0.00,WX3IN1Plus v1.30,2013-02-25 23:33:00,
2013-02-25 18:38:00,40.2,25.4,30.23,SE,125,0.0,0.0,55,0.00,,,0.00,WX3IN1Plus v1.30,2013-02-25 23:38:00,
2013-02-25 18:43:00,39.8,25.7,30.23,SE,125,0.0,0.0,57,0.00,,,0.00,WX3IN1Plus v1.30,2013-02-25 23:43:00,
2013-02-25 18:48:00,39.5,25.6,30.24,SE,125,0.0,0.0,57,0.00,,,0.00,WX3IN1Plus v1.30,2013-02-25 23:48:00,
2013-02-25 18:53:00,39.3,25.4,30.24,SE,125,0.0,0.0,57,0.00,,,0.00,WX3IN1Plus v1.30,2013-02-25 23:53:00,
2013-02-25 18:58:00,39.2,25.4,30.24,SE,125,0.0,0.0,57,0.00,,,0.00,WX3IN1Plus v1.30,2013-02-25 23:58:00,
2013-02-25 19:03:00,38.7,25.4,30.25,SE,125,0.0,0.0,58,0.00,,,0.00,WX3IN1Plus v1.30,2013-02-26 00:03:00,
2013-02-25 19:08:00,38.3,25.0,30.25,SE,125,0.0,0.0,58,0.00,,,0.00,WX3IN1Plus v1.30,2013-02-26 00:08:00,
2013-02-25 19:13:00,37.9,24.7,30.25,SE,125,0.0,0.0,59,0.00,,,0.00,WX3IN1Plus v1.30,2013-02-26 00:13:00,
2013-02-25 19:18:00,37.6,25.0,30.25,SE,125,0.0,0.0,60,0.00,,,0.00,WX3IN1Plus v1.30,2013-02-26 00:18:00,
2013-02-25 19:23:00,37.3,25.0,30.25,SE,125,0.0,0.0,61,0.00,,,0.00,WX3IN1Plus v1.30,2013-02-26 00:23:00,
2013-02-25 19:28:00,37.0,25.0,30.25,SE,125,0.0,0.0,62,0.00,,,0.00,WX3IN1Plus v1.30,2013-02-26 00:28:00,
2013-02-25 19:33:00,36.6,24.7,30.25,SE,125,0.0,0.0,62,0.00,,,0.00,WX3IN1Plus v1.30,2013-02-26 00:33:00,
2013-02-25 19:38:00,36.3,24.8,30.25,SE,125,0.0,0.0,63,0.00,,,0.00,WX3IN1Plus v1.30,2013-02-26 00:38:00,
2013-02-25 19:43:00,36.1,24.7,30.26,SE,125,0.0,0.0,63,0.00,,,0.00,WX3IN1Plus v1.30,2013-02-26 00:43:00,
2013-02-25 19:48:00,36.1,24.8,30.26,SE,125,0.0,0.0,64,0.00,,,0.00,WX3IN1Plus v1.30,2013-02-26 00:48:00,
2013-02-25 19:53:00,35.8,24.8,30.25,SE,125,0.0,0.0,64,0.00,,,0.00,WX3IN1Plus v1.30,2013-02-26 00:53:00,
2013-02-25 19:58:00,35.4,24.8,30.25,SE,125,0.0,0.0,66,0.00,,,0.00,WX3IN1Plus v1.30,2013-02-26 00:58:00,
2013-02-25 20:03:00,35.1,24.8,30.25,SE,125,0.0,0.0,66,0.00,,,0.00,WX3IN1Plus v1.30,2013-02-26 01:03:00,
2013-02-25 20:08:00,34.9,24.7,30.26,SE,125,0.0,0.0,66,0.00,,,0.00,WX3IN1Plus v1.30,2013-02-26 01:08:00,
2013-02-25 20:13:00,34.7,24.8,30.26,SE,125,0.0,0.0,67,0.00,,,0.00,WX3IN1Plus v1.30,2013-02-26 01:13:00,
2013-02-25 20:18:00,34.5,24.7,30.26,SE,125,0.0,0.0,67,0.00,,,0.00,WX3IN1Plus v1.30,2013-02-26 01:18:00,
2013-02-25 20:23:00,34.3,24.7,30.26,SE,125,0.0,0.0,68,0.00,,,0.00,WX3IN1Plus v1.30,2013-02-26 01:23:00,
2013-02-25 20:28:00,34.1,24.8,30.26,SE,125,0.0,0.0,69,0.00,,,0.00,WX3IN1Plus v1.30,2013-02-26 01:28:00,
2013-02-25 20:33:00,33.9,24.8,30.25,SE,125,0.0,0.0,69,0.00,,,0.00,WX3IN1Plus v1.30,2013-02-26 01:33:00,
2013-02-25 20:38:00,33.7,24.8,30.25,SE,125,0.0,0.0,70,0.00,,,0.00,WX3IN1Plus v1.30,2013-02-26 01:38:00,
2013-02-25 20:43:00,33.4,25.0,30.25,SE,125,0.0,0.0,71,0.00,,,0.00,WX3IN1Plus v1.30,2013-02-26 01:43:00,
2013-02-25 20:48:00,33.1,25.0,30.25,SE,125,0.0,0.0,72,0.00,,,0.00,WX3IN1Plus v1.30,2013-02-26 01:48:00,
2013-02-25 20:53:00,32.9,24.8,30.25,SE,125,0.0,0.0,72,0.00,,,0.00,WX3IN1Plus v1.30,2013-02-26 01:53:00,
2013-02-25 20:58:00,32.8,24.7,30.25,SE,125,0.0,0.0,72,0.00,,,0.00,WX3IN1Plus v1.30,2013-02-26 01:58:00,
2013-02-25 21:03:00,32.6,24.7,30.25,SE,125,0.0,0.0,72,0.00,,,0.00,WX3IN1Plus v1.30,2013-02-26 02:03:00,
2013-02-25 21:08:00,32.4,24.8,30.25,SE,125,0.0,0.0,73,0.00,,,0.00,WX3IN1Plus v1.30,2013-02-26 02:08:00,
2013-02-25 21:13:00,32.2,24.8,30.25,SE,125,0.0,0.0,74,0.00,,,0.00,WX3IN1Plus v1.30,2013-02-26 02:13:00,
2013-02-25 21:18:00,31.9,24.8,30.25,SE,125,0.0,0.0,74,0.00,,,0.00,WX3IN1Plus v1.30,2013-02-26 02:18:00,
2013-02-25 21:23:00,32.0,24.8,30.25,SE,125,0.0,0.0,74,0.00,,,0.00,WX3IN1Plus v1.30,2013-02-26 02:23:00,
2013-02-25 21:28:00,31.8,24.8,30.24,SE,125,0.0,0.0,74,0.00,,,0.00,WX3IN1Plus v1.30,2013-02-26 02:28:00,
2013-02-25 21:33:00,31.6,24.7,30.24,SE,125,0.0,0.0,74,0.00,,,0.00,WX3IN1Plus v1.30,2013-02-26 02:33:00,
2013-02-25 21:38:00,31.4,24.3,30.24,SE,125,0.0,0.0,74,0.00,,,0.00,WX3IN1Plus v1.30,2013-02-26 02:38:00,
2013-02-25 21:43:00,31.1,24.1,30.24,SE,125,0.0,0.0,74,0.00,,,0.00,WX3IN1Plus v1.30,2013-02-26 02:43:00,
2013-02-25 21:48:00,30.9,23.9,30.24,SE,125,0.0,0.0,74,0.00,,,0.00,WX3IN1Plus v1.30,2013-02-26 02:48:00,
2013-02-25 21:53:00,30.8,23.9,30.24,SE,125,0.0,0.0,74,0.00,,,0.00,WX3IN1Plus v1.30,2013-02-26 02:53:00,
2013-02-25 21:58:00,30.7,23.9,30.24,SE,125,0.0,0.0,75,0.00,,,0.00,WX3IN1Plus v1.30,2013-02-26 02:58:00,
2013-02-25 22:03:00,30.4,24.3,30.24,SE,125,0.0,0.0,76,0.00,,,0.00,WX3IN1Plus v1.30,2013-02-26 03:03:00,
2013-02-25 22:08:00,30.0,23.9,30.24,SE,125,0.0,0.0,77,0.00,,,0.00,WX3IN1Plus v1.30,2013-02-26 03:08:00,
2013-02-25 22:13:00,30.0,23.9,30.24,SE,125,0.0,0.0,77,0.00,,,0.00,WX3IN1Plus v1.30,2013-02-26 03:13:00,
2013-02-25 22:18:00,29.9,23.9,30.24,SE,125,0.0,0.0,77,0.00,,,0.00,WX3IN1Plus v1.30,2013-02-26 03:18:00,
2013-02-25 22:23:00,29.8,24.1,30.24,SE,125,0.0,0.0,78,0.00,,,0.00,WX3IN1Plus v1.30,2013-02-26 03:23:00,
2013-02-25 22:28:00,29.5,23.9,30.24,SE,125,0.0,0.0,78,0.00,,,0.00,WX3IN1Plus v1.30,2013-02-26 03:28:00,
2013-02-25 22:33:00,29.4,23.6,30.24,SE,125,0.0,0.0,78,0.00,,,0.00,WX3IN1Plus v1.30,2013-02-26 03:33:00,
2013-02-25 22:38:00,29.4,23.9,30.24,SE,125,0.0,0.0,79,0.00,,,0.00,WX3IN1Plus v1.30,2013-02-26 03:38:00,
2013-02-25 22:43:00,29.3,23.9,30.24,SE,125,0.0,0.0,79,0.00,,,0.00,WX3IN1Plus v1.30,2013-02-26 03:43:00,
2013-02-25 22:48:00,29.3,23.9,30.25,SE,125,0.0,0.0,79,0.00,,,0.00,WX3IN1Plus v1.30,2013-02-26 03:48:00,
2013-02-25 22:53:00,29.1,23.6,30.25,SE,125,0.0,0.0,79,0.00,,,0.00,WX3IN1Plus v1.30,2013-02-26 03:53:00,
2013-02-25 22:58:00,28.9,23.9,30.25,SE,125,0.0,0.0,80,0.00,,,0.00,WX3IN1Plus v1.30,2013-02-26 03:58:00,
2013-02-25 23:03:00,29.1,24.3,30.24,SE,125,0.0,0.0,81,0.00,,,0.00,WX3IN1Plus v1.30,2013-02-26 04:03:00,
2013-02-25 23:08:00,29.1,24.3,30.23,SE,125,0.0,0.0,81,0.00,,,0.00,WX3IN1Plus v1.30,2013-02-26 04:08:00,
2013-02-25 23:13:00,29.2,24.8,30.23,SE,125,0.0,0.0,82,0.00,,,0.00,WX3IN1Plus v1.30,2013-02-26 04:13:00,
2013-02-25 23:18:00,29.4,24.8,30.23,SE,125,0.0,0.0,82,0.00,,,0.00,WX3IN1Plus v1.30,2013-02-26 04:18:00,
2013-02-25 23:23:00,29.4,24.7,30.23,SE,125,0.0,0.0,81,0.00,,,0.00,WX3IN1Plus v1.30,2013-02-26 04:23:00,
2013-02-25 23:28:00,29.4,24.7,30.24,SE,125,0.0,0.0,81,0.00,,,0.00,WX3IN1Plus v1.30,2013-02-26 04:28:00,
2013-02-25 23:33:00,29.4,24.7,30.26,SE,125,0.0,0.0,81,0.00,,,0.00,WX3IN1Plus v1.30,2013-02-26 04:33:00,
2013-02-25 23:38:00,29.3,24.7,30.27,SE,125,0.0,0.0,81,0.00,,,0.00,WX3IN1Plus v1.30,2013-02-26 04:38:00,
2013-02-25 23:43:00,29.1,24.3,30.26,SE,125,0.0,0.0,81,0.00,,,0.00,WX3IN1Plus v1.30,2013-02-26 04:43:00,
2013-02-25 23:48:00,28.9,24.3,30.26,SE,125,0.0,0.0,82,0.00,,,0.00,WX3IN1Plus v1.30,2013-02-26 04:48:00,
2013-02-25 23:53:00,28.9,24.3,30.26,SE,125,0.0,0.0,82,0.00,,,0.00,WX3IN1Plus v1.30,2013-02-26 04:53:00,
2013-02-25 23:58:00,28.7,24.1,30.27,SE,125,0.0,0.0,82,0.00,,,0.00,WX3IN1Plus v1.30,2013-02-26 04:58:00,